Location: Milton Keynes
(52.0316°N, 0.7531°W)
Time: 08:59:15
(UTC+01:00)

Envisat - Pass Details

Date: 29 January 2019
Orbit: 764 x 766 km, 98.2° (Epoch: 22 April)

Event Time Altitude Azimuth Distance (km) Brightness Sun altitude
Rises 06:09:41 0° 28° (NNE) 3,247 6.5 -15.1°
Reaches altitude 10° 06:13:15 10° 55° (NE) 2,315 6.1 -14.5°
Maximum altitude 06:15:47 14° 85° (E) 2,062 6.4 -14.1°
Drops below altitude 10° 06:18:19 10° 115° (ESE) 2,306 6.8 -13.8°
Sets 06:21:51 0° 141° (SE) 3,226 7.1 -13.2°
